Regional Weather Roundup
Issued by NWS Green Bay, WI

Home | Current Version | Previous Version | Graphics & Text | Print | Product List | Glossary Off
Versions: 1 2 3 4 5 6 7 8 9 10 11 12 13 14 15 16 17 18 19 20 21 22 23 24 25 26 27 28 29 30 31 32 33 34 35 36 37 38 39 40 41 42 43 44 45 46 47 48 49 50

000
ASUS43 KGRB 291610
RWRGRB

NORTH-CENTRAL AND NORTHEAST WISCONSIN REGIONAL WEATHER ROUNDUP
NATIONAL WEATHER SERVICE GREEN BAY WI
1000 AM CST THU JAN 29 2015

WIZ005-009-010>012-018-019-291700-
NORTH CENTRAL WISCONSIN

CITY           SKY/WX    TMP DP  RH WIND       PRES   REMARKS
IRONWOOD       CLOUDY    27  21  80 NW23G31   29.98R
MANITOWISH WTR CLOUDY    26  23  87 NW18G31   29.94R
ARBOR VITAE    CLOUDY    29  26  86 N13G18    29.93R
EAGLE RIVER    MIX PCPN  27  23  83 NW16      29.90R
LAND O LAKES   MIX PCPN  28  26  91 NW8G17    29.91R
RHINELANDER    CLOUDY    27  22  81 NW12G32   29.92R
PHILLIPS       CLOUDY    28  23  79 NW10G22   29.97R
ANTIGO         CLOUDY    28  24  86 NW18G29   29.90R
TOMAHAWK       CLOUDY    28  23  81 NW14G21   29.95R
MERRILL        CLOUDY    29  24  81 N14G20    29.94R
$$

WIZ013-073-291700-
NORTHEAST WISCONSIN

CITY           SKY/WX    TMP DP  RH WIND       PRES   REMARKS
IRON MOUNTAIN  NOT AVBL
MARINETTE      CLOUDY    30  27  86 N9G17     29.86R
OCONTO         CLOUDY    31  27  84 MISG      29.88R
$$

WIZ017-030-035>037-045-291700-
CENTRAL WISCONSIN

CITY           SKY/WX    TMP DP  RH WIND       PRES   REMARKS
MEDFORD        CLOUDY    28  24  82 NW18G26   29.96R
WAUSAU         CLOUDY    30  24  78 NW14      29.93R
MOSINEE        CLOUDY    30  27  86 NW15G25   29.94R
MARSHFIELD     CLOUDY    31  23  72 N20G30    29.97R
WISC RAPIDS    CLOUDY    31  25  78 NW16      29.98R
STEVENS POINT  CLOUDY    29  24  80 NW17G28   29.95R
WAUPACA        CLOUDY    34  26  72 NW14G29   29.93R
SHAWANO        CLOUDY    33  26  73 N8G20     29.91R
CLINTONVILLE   CLOUDY    32  27  80 NW17      29.91R
$$

WIZ038-039-048-051-291700-
FOX VALLEY

CITY           SKY/WX    TMP DP  RH WIND       PRES   REMARKS
NWS GREEN BAY  CLOUDY    32  26  78 NW16G25   29.89R HAZE
APPLETON       CLOUDY    30  25  80 NW15G21   29.90R
OSHKOSH        CLOUDY    31  25  78 NW16G23   29.90R
FOND DU LAC    CLOUDY    32  25  75 NW17G25   29.90R
$$

WIZ022-050-052-291700-
EAST CENTRAL WISCONSIN

CITY           SKY/WX    TMP DP  RH WIND       PRES   REMARKS
STURGEON BAY   CLOUDY    30  25  80 NW15      29.88R
MANITOWOC      CLOUDY    32  27  81 NW18G25   29.87R
SHEBOYGAN      CLOUDY    31  25  78 NW14G22   29.87R
$$

LMZ563-521-522-541>543-291700-
LAKESHORE

STATION/POSITION TIME  TEMP    WIND        PRES    VSBY  WAVE
                       AIR SEA DIR/SP/G                  HT/PER
                 (UTC) (F)     (DEG/KT/KT) (MB)    (MI)  (FT/S)
SHEBOYGAN LKSHOR 1600   31     330/ 18/ 22 1012.3R
KEWAUNEE LKSHORE 1500   31     330/ 11/ 18 1009.4R
NORTHPORT PIER   1600   30     310/ 15/ 18 1010.5R
SISTER BAY LKSHO 1500   30     340/ 17/ 21   N/A
STURGEON BAY CG  1600   30     350/  8     1012.1      6   2
CHAMBERS ISLAND  1600   31     310/ 13/ 19 1011.2S
MENOMINEE LKSHOR 1500   31     310/ 16     1011.1R
$$


USA.gov is the U.S. government's official web portal to all federal, state and local government web resources and services.